This demonstration page uses our WeatherBlox Daily Observations layout. Learn more.

Left ArrowRight Arrow

44.89941, -97.11507

Hourly Observations for January 10, 2021

Temp ( °F °C ) Dew Point ( °F °C ) Humidity (%) Winds ( mph kmh ) Pressure ( in mb ) Visibility ( mi km ) Precip ( " mm )
12:25 am 00:25 Cloudy 29 -1.7 29 -1.7 100 100 WNW 7 11 30.44 1031 7 11 0.00 0.00
12:53 am 00:53 Cloudy 30 -1.1 29 -1.7 96 96 NW 7 11 30.41 1030 7 11 0.00 0.00
1:53 am 01:53 Cloudy 30 -1.1 28 -2.2 92 92 NW 5 7 30.41 1030 9 14 0.00 0.00
2:26 am 02:26 Cloudy 30 -1.1 27 -2.8 88 88 WNW 7 11 30.44 1031 10 16 0.00 0.00
2:53 am 02:53 Cloudy 30 -1.1 28 -2.2 92 92 NW 9 15 30.42 1030 10 16 0.00 0.00
3:53 am 03:53 Cloudy 30 -1.1 27 -2.8 88 88 NW 7 11 30.42 1030 10 16 0.00 0.00
4:53 am 04:53 Cloudy 30 -1.1 26 -3.3 85 85 NW 12 19 30.42 1030 10 16 0.00 0.00
5:31 am 05:31 Cloudy 30 -1.1 26 -3.3 85 85 NW 8 13 30.44 1031 10 16 0.00 0.00
5:53 am 05:53 Cloudy 30 -1.1 25 -3.9 82 82 NNW 14 22 30.41 1030 10 16 0.00 0.00
6:02 am 06:02 Cloudy 30 -1.1 25 -3.9 82 82 NW 12 19 30.43 1030 10 16 0.00 0.00
6:53 am 06:53 Cloudy 29 -1.7 26 -3.3 89 89 NW 7 11 30.41 1030 10 16 0.00 0.00
7:53 am 07:53 Cloudy 29 -1.7 25 -3.9 85 85 NW 9 15 30.41 1030 10 16 0.00 0.00
8:53 am 08:53 Cloudy 30 -1.1 25 -3.9 82 82 WNW 9 15 30.41 1030 10 16 0.00 0.00
9:53 am 09:53 Cloudy 30 -1.1 25 -3.9 82 82 WNW 6 9 30.40 1030 10 16 0.00 0.00
10:53 am 10:53 Cloudy 32 0 25 -3.9 75 75 W 8 13 30.40 1030 10 16 0.00 0.00
11:53 am 11:53 Cloudy 32 0 26 -3.3 79 79 W 12 19 30.38 1029 10 16 0.00 0.00
12:53 pm 12:53 Cloudy 32 0 27 -2.8 82 82 W 10 17 30.35 1028 10 16 0.00 0.00
1:53 pm 13:53 Cloudy 32 0 26 -3.3 79 79 W 14 22 30.32 1027 10 16 0.00 0.00
2:53 pm 14:53 Cloudy 32 0 26 -3.3 79 79 WSW 17 28 30.31 1026 10 16 0.00 0.00
3:53 pm 15:53 Cloudy 31 -0.6 25 -3.9 79 79 WSW 15 24 30.30 1026 10 16 0.00 0.00
4:53 pm 16:53 Cloudy 31 -0.6 26 -3.3 82 82 WSW 14 22 30.28 1026 10 16 0.00 0.00
5:26 pm 17:26 Cloudy 30 -1.1 26 -3.3 85 85 SW 17 28 30.31 1026 10 16 0.00 0.00
5:53 pm 17:53 Cloudy 30 -1.1 26 -3.3 85 85 SW 15 24 30.28 1025 10 16 0.00 0.00
6:53 pm 18:53 Cloudy 29 -1.7 25 -3.9 85 85 SW 18 30 30.27 1025 10 16 0.00 0.00
7:53 pm 19:53 Cloudy 30 -1.1 26 -3.3 85 85 SW 18 30 30.26 1025 10 16 0.00 0.00
8:53 pm 20:53 Cloudy 29 -1.7 26 -3.3 89 89 SSW 18 30 30.22 1023 10 16 0.00 0.00
9:20 pm 21:20 Partly Cloudy 28 -2.2 25 -3.9 88 88 SSW 15 24 30.25 1024 10 16 0.00 0.00
9:53 pm 21:53 Clear 27 -2.8 25 -3.9 92 92 SSW 14 22 30.22 1023 10 16 0.00 0.00
10:53 pm 22:53 Clear 26 -3.3 24 -4.4 92 92 SSW 15 24 30.20 1023 10 16 0.00 0.00
11:53 pm 23:53 Clear 26 -3.3 24 -4.4 92 92 SSW 13 20 30.18 1022 10 16 0.00 0.00

Powered by AerisWeather